Location: Luxembourg
(49.6000°N, 6.1500°W)
Time: 12:48:44
(UTC+02:00)

Tiangong 2 - Visible Passes

Search period start: 18 July 2018 00:00
Search period end: 28 July 2018 00:00
Orbit: 386 x 394 km, 42.8° (Epoch: 18 July)

Date Brightness Start Highest point End Pass type
(mag) Time Alt. Az. Time Alt. Az. Time Alt. Az.
18 Jul 2.7 00:17:56 10° WSW 00:20:19 20° SSW 00:20:19 20° SSW visible
18 Jul 2.6 23:20:15 10° WSW 23:22:50 22° S 23:25:03 12° SE visible
19 Jul 3.0 23:59:35 10° WSW 00:01:34 15° SSW 00:02:04 15° S visible
20 Jul 2.9 23:01:43 10° WSW 23:04:05 19° SSW 23:06:26 10° SE visible
21 Jul 3.5 23:41:49 10° SW 23:42:44 11° SSW 23:43:39 10° S visible
